| time (UTC) | temp F | wind direction | speed knots | gust knots | rain 1hr in | rain 24hr in | rain mn in | humidity % | barometer mb |
| 20260905224532 | 89 | 236 | 2.6 | 8.7 | 0.00 | 0.00 | 0.00 | 69 | 1009.1 |
| 20260905224029 | 90 | 186 | 1.7 | 6.1 | 0.00 | 0.00 | 0.00 | 69 | 1009.1 |
| 20260905223528 | 90 | 181 | 1.7 | 7.8 | 0.00 | 0.00 | 0.00 | 68 | 1009.1 |
| 20260905223041 | 90 | 212 | 3.5 | 7.8 | 0.00 | 0.00 | 0.00 | 68 | 1009.0 |
| 20260905222528 | 91 | 223 | 1.7 | 7.8 | 0.00 | 0.00 | 0.00 | 67 | 1009.0 |
| 20260905222027 | 91 | 172 | 2.6 | 6.1 | 0.00 | 0.00 | 0.00 | 66 | 1009.0 |
| 20260905221528 | 91 | 186 | 1.7 | 5.2 | 0.00 | 0.00 | 0.00 | 66 | 1008.9 |
| 20260905221027 | 92 | 181 | 1.7 | 8.7 | 0.00 | 0.00 | 0.00 | 64 | 1009.0 |
| 20260905220530 | 92 | 188 | 3.5 | 8.7 | 0.00 | 0.00 | 0.00 | 63 | 1008.8 |
| 20260905220027 | 92 | 200 | 2.6 | 8.7 | 0.00 | 0.00 | 0.00 | 61 | 1008.8 |
| 20260905215527 | 93 | 176 | 3.5 | 8.7 | 0.00 | 0.00 | 0.00 | 60 | 1008.8 |
| 20260905215027 | 94 | 180 | 3.5 | 7.8 | 0.00 | 0.00 | 0.00 | 58 | 1008.8 |
| 20260905214526 | 94 | 200 | 1.7 | 4.3 | 0.00 | 0.00 | 0.00 | 56 | 1008.6 |
| 20260905214026 | 94 | 180 | 1.7 | 4.3 | 0.00 | 0.00 | 0.00 | 52 | 1008.6 |
| 20260905213528 | 94 | 194 | 0.0 | 1.7 | 0.00 | 0.00 | 0.00 | 52 | 1008.7 |
| 20260905213026 | 94 | 194 | 0.0 | 2.6 | 0.00 | 0.00 | 0.00 | 53 | 1008.6 |
| 20260905212528 | 94 | 192 | 0.0 | 2.6 | 0.00 | 0.00 | 0.00 | 52 | 1008.6 |
| 20260905212025 | 94 | 190 | 0.0 | 1.7 | 0.00 | 0.00 | 0.00 | 50 | 1008.6 |
| 20260905211525 | 95 | 193 | 0.9 | 6.1 | 0.00 | 0.00 | 0.00 | 50 | 1008.6 |
| 20260905211024 | 96 | 193 | 1.7 | 6.1 | 0.00 | 0.00 | 0.00 | 50 | 1008.7 |
| 20260905210524 | 95 | 178 | 2.6 | 5.2 | 0.00 | 0.00 | 0.00 | 49 | 1008.7 |
| 20260905210032 | 95 | 169 | 0.9 | 4.3 | 0.00 | 0.00 | 0.00 | 51 | 1008.8 |
| 20260905205523 | 96 | 136 | 1.7 | 6.1 | 0.00 | 0.00 | 0.00 | 50 | 1008.8 |
| 20260905205022 | 95 | 176 | 1.7 | 6.1 | 0.00 | 0.00 | 0.00 | 51 | 1008.9 |
| 20260905204522 | 94 | 163 | 0.0 | 1.7 | 0.00 | 0.00 | 0.00 | 53 | 1008.9 |
| 20260905204020 | 94 | 163 | 0.0 | 1.7 | 0.00 | 0.00 | 0.00 | 52 | 1009.1 |
| 20260905203524 | 95 | 163 | 0.0 | 4.3 | 0.00 | 0.00 | 0.00 | 52 | 1009.1 |
| 20260905203020 | 95 | 186 | 0.0 | 4.3 | 0.00 | 0.00 | 0.00 | 50 | 1009.2 |
| 20260905202519 | 95 | 186 | 0.9 | 4.3 | 0.00 | 0.00 | 0.00 | 49 | 1009.3 |
| 20260905202019 | 95 | 271 | 0.9 | 2.6 | 0.00 | 0.00 | 0.00 | 49 | 1009.3 |
| 20260905201523 | 95 | 271 | 0.9 | 4.3 | 0.00 | 0.00 | 0.00 | 49 | 1009.3 |
| 20260905201017 | 96 | 191 | 0.9 | 6.1 | 0.00 | 0.00 | 0.00 | 48 | 1009.4 |
| 20260905200520 | 96 | 176 | 2.6 | 6.1 | 0.00 | 0.00 | 0.00 | 50 | 1009.6 |
| 20260905200018 | 96 | 193 | 0.9 | 4.3 | 0.00 | 0.00 | 0.00 | 49 | 1009.8 |
| 20260905195513 | 95 | 165 | 2.6 | 4.3 | 0.00 | 0.00 | 0.00 | 48 | 1009.9 |
| 20260905195014 | 95 | 88 | 0.9 | 1.7 | 0.00 | 0.00 | 0.00 | 50 | 1009.9 |
| 20260905194513 | 95 | 88 | 0.9 | 1.7 | 0.00 | 0.00 | 0.00 | 51 | 1010.0 |
| 20260905194013 | 96 | 88 | 0.0 | 1.7 | 0.00 | 0.00 | 0.00 | 51 | 1010.2 |
| 20260905193513 | 95 | 90 | 0.0 | 2.6 | 0.00 | 0.00 | 0.00 | 50 | 1010.1 |
| 20260905193018 | 95 | 79 | 0.9 | 2.6 | 0.00 | 0.00 | 0.00 | 50 | 1010.2 |
| 20260905192511 | 94 | 258 | 0.0 | 0.0 | 0.00 | 0.00 | 0.00 | 50 | 1010.3 |
| 20260905192013 | 94 | 258 | 0.0 | 1.7 | 0.00 | 0.00 | 0.00 | 50 | 1010.3 |
| 20260905191511 | 94 | 258 | 0.0 | 2.6 | 0.00 | 0.00 | 0.00 | 51 | 1010.3 |
| 20260905191013 | 94 | 258 | 0.9 | 2.6 | 0.00 | 0.00 | 0.00 | 52 | 1010.3 |
| 20260905190510 | 94 | 168 | 0.0 | 2.6 | 0.00 | 0.00 | 0.00 | 52 | 1010.4 |
| 20260905190010 | 94 | 65 | 0.9 | 1.7 | 0.00 | 0.00 | 0.00 | 52 | 1010.4 |
| 20260905185509 | 93 | 65 | 0.9 | 1.7 | 0.00 | 0.00 | 0.00 | 54 | 1010.3 |
| 20260905185009 | 94 | 68 | 0.0 | 4.3 | 0.00 | 0.00 | 0.00 | 52 | 1010.4 |
| 20260905184513 | 95 | 68 | 0.0 | 4.3 | 0.00 | 0.00 | 0.00 | 51 | 1010.5 |
| 20260905184007 | 95 | 188 | 0.9 | 3.5 | 0.00 | 0.00 | 0.00 | 50 | 1010.5 |
| 20260905183507 | 95 | 108 | 0.0 | 1.7 | 0.00 | 0.00 | 0.00 | 53 | 1010.7 |
| 20260905183005 | 95 | 103 | 0.0 | 5.2 | 0.00 | 0.00 | 0.00 | 50 | 1010.8 |
| 20260905182506 | 95 | 107 | 2.6 | 5.2 | 0.00 | 0.00 | 0.00 | 50 | 1010.9 |
| 20260905182005 | 96 | 53 | 0.0 | 4.3 | 0.00 | 0.00 | 0.00 | 50 | 1010.9 |
| 20260905181504 | 96 | 78 | 0.9 | 4.3 | 0.00 | 0.00 | 0.00 | 51 | 1011.0 |
| 20260905181004 | 96 | 158 | 0.9 | 3.5 | 0.00 | 0.00 | 0.00 | 52 | 1011.0 |
| 20260905180502 | 95 | 162 | 0.0 | 3.5 | 0.00 | 0.00 | 0.00 | 57 | 1011.0 |
| 20260905180005 | 95 | 252 | 0.9 | 4.3 | 0.00 | 0.00 | 0.00 | 52 | 1011.0 |
| 20260905175501 | 95 | 206 | 0.9 | 4.3 | 0.00 | 0.00 | 0.00 | 53 | 1011.0 |
| 20260905175100 | 94 | 210 | 2.6 | 4.3 | 0.00 | 0.00 | 0.00 | 57 | 1011.1 |
| 20260905174604 | 91 | 186 | 0.0 | 0.0 | 0.00 | 0.00 | 0.00 | 60 | 1011.2 |
| 20260905174059 | 91 | 186 | 0.0 | 0.9 | 0.00 | 0.00 | 0.00 | 59 | 1011.4 |
| 20260905173558 | 92 | 186 | 0.0 | 2.6 | 0.00 | 0.00 | 0.00 | 58 | 1011.4 |
| 20260905173057 | 94 | 184 | 0.9 | 2.6 | 0.00 | 0.00 | 0.00 | 55 | 1011.6 |
| 20260905172556 | 95 | 205 | 0.9 | 1.7 | 0.00 | 0.00 | 0.00 | 57 | 1011.5 |
| 20260905172055 | 94 | 205 | 0.0 | 4.3 | 0.00 | 0.00 | 0.00 | 55 | 1011.7 |
| 20260905171554 | 93 | 203 | 0.9 | 4.3 | 0.00 | 0.00 | 0.00 | 57 | 1011.7 |
| 20260905171053 | 92 | 280 | 0.9 | 2.6 | 0.00 | 0.00 | 0.00 | 58 | 1011.7 |
| 20260905170552 | 91 | 80 | 0.0 | 1.7 | 0.00 | 0.00 | 0.00 | 59 | 1011.7 |
| 20260905170053 | 91 | 46 | 0.0 | 1.7 | 0.00 | 0.00 | 0.00 | 59 | 1011.9 |
| 20260905165552 | 92 | 46 | 0.0 | 1.7 | 0.00 | 0.00 | 0.00 | 57 | 1011.9 |
| 20260905165052 | 93 | 46 | 0.0 | 3.5 | 0.00 | 0.00 | 0.00 | 56 | 1011.9 |
| 20260905164552 | 93 | 47 | 0.9 | 4.3 | 0.00 | 0.00 | 0.00 | 56 | 1011.9 |
| 20260905164050 | 93 | 92 | 1.7 | 3.5 | 0.00 | 0.00 | 0.00 | 58 | 1012.0 |
| 20260905163549 | 92 | 340 | 0.0 | 1.7 | 0.00 | 0.00 | 0.00 | 59 | 1012.1 |
| 20260905163049 | 93 | 340 | 0.0 | 2.6 | 0.00 | 0.00 | 0.00 | 58 | 1012.2 |
| 20260905162549 | 93 | 335 | 0.9 | 2.6 | 0.00 | 0.00 | 0.00 | 59 | 1012.3 |
| 20260905162048 | 92 | 284 | 0.9 | 3.5 | 0.00 | 0.00 | 0.00 | 60 | 1012.4 |
| 20260905161547 | 92 | 303 | 0.0 | 2.6 | 0.00 | 0.00 | 0.00 | 61 | 1012.4 |
| 20260905161045 | 92 | 304 | 0.9 | 2.6 | 0.00 | 0.00 | 0.00 | 61 | 1012.5 |
| 20260905160544 | 91 | 288 | 0.9 | 2.6 | 0.00 | 0.00 | 0.00 | 61 | 1012.5 |
| 20260905160044 | 91 | 288 | 0.9 | 3.5 | 0.00 | 0.00 | 0.00 | 61 | 1012.6 |
| 20260905155543 | 90 | 1 | 0.9 | 2.6 | 0.00 | 0.00 | 0.00 | 62 | 1012.6 |
| 20260905155041 | 90 | 101 | 0.9 | 2.6 | 0.00 | 0.00 | 0.00 | 61 | 1012.6 |
| 20260905154541 | 90 | 155 | 0.9 | 2.6 | 0.00 | 0.00 | 0.00 | 62 | 1012.7 |
| 20260905154040 | 90 | 134 | 0.0 | 0.0 | 0.00 | 0.00 | 0.00 | 60 | 1012.7 |
| 20260905153542 | 90 | 134 | 0.0 | 0.0 | 0.00 | 0.00 | 0.00 | 61 | 1012.7 |
| 20260905153038 | 90 | 134 | 0.0 | 0.0 | 0.00 | 0.00 | 0.00 | 64 | 1012.8 |
| 20260905152536 | 88 | 130 | 0.0 | 0.0 | 0.00 | 0.00 | 0.00 | 63 | 1012.8 |
| 20260905152035 | 88 | 130 | 0.0 | 0.0 | 0.00 | 0.00 | 0.00 | 64 | 1012.8 |
| 20260905151534 | 88 | 131 | 0.0 | 0.0 | 0.00 | 0.00 | 0.00 | 65 | 1012.9 |
| 20260905151033 | 88 | 135 | 0.0 | 0.0 | 0.00 | 0.00 | 0.00 | 65 | 1012.8 |
| 20260905150531 | 88 | 133 | 0.0 | 0.0 | 0.00 | 0.00 | 0.00 | 66 | 1012.9 |
| 20260905150030 | 87 | 132 | 0.0 | 0.0 | 0.00 | 0.00 | 0.00 | 67 | 1012.9 |
| 20260905145527 | 86 | 132 | 0.0 | 0.0 | 0.00 | 0.00 | 0.00 | 69 | 1013.0 |
| 20260905145028 | 86 | 133 | 0.0 | 0.0 | 0.00 | 0.00 | 0.00 | 71 | 1013.0 |
| 20260905144525 | 85 | 133 | 0.0 | 0.0 | 0.00 | 0.00 | 0.00 | 71 | 1013.0 |
| 20260905144024 | 84 | 133 | 0.0 | 0.0 | 0.00 | 0.00 | 0.00 | 72 | 1013.1 |
| 20260905143525 | 84 | 133 | 0.0 | 0.0 | 0.00 | 0.00 | 0.00 | 73 | 1013.1 |
| 20260905143033 | 84 | 133 | 0.0 | 0.0 | 0.00 | 0.00 | 0.00 | 75 | 1013.2 |
| 20260905142530 | 84 | 133 | 0.0 | 0.0 | 0.00 | 0.00 | 0.00 | 75 | 1013.2 |
| 20260905142021 | 84 | 134 | 0.0 | 0.0 | 0.00 | 0.00 | 0.00 | 75 | 1013.2 |
| 20260905141520 | 83 | 134 | 0.0 | 0.0 | 0.00 | 0.00 | 0.00 | 77 | 1013.1 |
| 20260905141020 | 83 | 134 | 0.0 | 0.0 | 0.00 | 0.00 | 0.00 | 76 | 1013.2 |
| 20260905140517 | 82 | 134 | 0.0 | 0.0 | 0.00 | 0.00 | 0.00 | 78 | 1013.2 |
| 20260905140017 | 82 | 134 | 0.0 | 0.0 | 0.00 | 0.00 | 0.00 | 79 | 1013.3 |
| 20260905135515 | 82 | 134 | 0.0 | 0.0 | 0.00 | 0.00 | 0.00 | 80 | 1013.3 |
| 20260905135018 | 81 | 134 | 0.0 | 0.0 | 0.00 | 0.00 | 0.00 | 81 | 1013.3 |
| 20260905134524 | 81 | 133 | 0.0 | 0.0 | 0.00 | 0.00 | 0.00 | 82 | 1013.2 |
| 20260905134012 | 80 | 133 | 0.0 | 0.0 | 0.00 | 0.00 | 0.00 | 82 | 1013.2 |
| 20260905133510 | 80 | 133 | 0.0 | 1.7 | 0.00 | 0.00 | 0.00 | 83 | 1013.3 |
| 20260905133010 | 79 | 133 | 0.0 | 1.7 | 0.00 | 0.00 | 0.00 | 84 | 1013.3 |
| 20260905132509 | 79 | 131 | 0.0 | 0.9 | 0.00 | 0.00 | 0.00 | 85 | 1013.4 |
| 20260905132011 | 79 | 131 | 0.0 | 0.9 | 0.00 | 0.00 | 0.00 | 85 | 1013.4 |
| 20260905131509 | 78 | 131 | 0.0 | 0.9 | 0.00 | 0.00 | 0.00 | 86 | 1013.4 |
| 20260905131007 | 78 | 131 | 0.0 | 0.9 | 0.00 | 0.00 | 0.00 | 87 | 1013.5 |
| 20260905130507 | 77 | 131 | 0.0 | 0.9 | 0.00 | 0.00 | 0.00 | 88 | 1013.6 |
| 20260905130006 | 77 | 131 | 0.0 | 0.0 | 0.00 | 0.00 | 0.00 | 89 | 1013.6 |
| 20260905125505 | 77 | 131 | 0.0 | 0.0 | 0.00 | 0.00 | 0.00 | 90 | 1013.5 |
| 20260905125005 | 76 | 131 | 0.0 | 0.0 | 0.00 | 0.00 | 0.00 | 91 | 1013.4 |
| 20260905124508 | 76 | 131 | 0.0 | 0.0 | 0.00 | 0.00 | 0.00 | 92 | 1013.4 |
| 20260905124005 | 75 | 131 | 0.0 | 0.0 | 0.00 | 0.00 | 0.00 | 93 | 1013.4 |
| 20260905123507 | 75 | 131 | 0.0 | 0.0 | 0.00 | 0.00 | 0.00 | 94 | 1013.4 |
| 20260905123023 | 74 | 131 | 0.0 | 0.0 | 0.00 | 0.00 | 0.00 | 94 | 1013.5 |
| 20260905122503 | 74 | 131 | 0.0 | 0.0 | 0.00 | 0.00 | 0.00 | 94 | 1013.5 |
| 20260905122006 | 74 | 131 | 0.0 | 0.0 | 0.00 | 0.00 | 0.00 | 94 | 1013.5 |
| 20260905121502 | 74 | 131 | 0.0 | 0.0 | 0.00 | 0.00 | 0.00 | 94 | 1013.5 |
| 20260905121001 | 74 | 131 | 0.0 | 0.0 | 0.00 | 0.00 | 0.00 | 94 | 1013.4 |
| 20260905120603 | 73 | 131 | 0.0 | 0.0 | 0.00 | 0.00 | 0.00 | 94 | 1013.4 |
| 20260905120101 | 73 | 131 | 0.0 | 0.0 | 0.00 | 0.00 | 0.00 | 94 | 1013.2 |
| 20260905115559 | 73 | 131 | 0.0 | 0.0 | 0.00 | 0.00 | 0.00 | 94 | 1013.2 |
| 20260905115103 | 73 | 131 | 0.0 | 0.0 | 0.00 | 0.00 | 0.00 | 94 | 1013.2 |
| 20260905114559 | 73 | 131 | 0.0 | 0.0 | 0.00 | 0.00 | 0.00 | 94 | 1013.1 |
| 20260905114058 | 73 | 131 | 0.0 | 0.0 | 0.00 | 0.00 | 0.00 | 94 | 1013.1 |
| 20260905113557 | 73 | 131 | 0.0 | 0.0 | 0.00 | 0.00 | 0.00 | 94 | 1013.1 |
| 20260905113100 | 73 | 131 | 0.0 | 0.0 | 0.00 | 0.00 | 0.00 | 94 | 1013.0 |
| 20260905112600 | 73 | 131 | 0.0 | 0.0 | 0.00 | 0.00 | 0.00 | 94 | 1013.0 |
| 20260905112056 | 73 | 131 | 0.0 | 0.0 | 0.00 | 0.00 | 0.00 | 94 | 1013.0 |
| 20260905111600 | 73 | 131 | 0.0 | 0.0 | 0.00 | 0.00 | 0.00 | 94 | 1012.9 |
| 20260905111056 | 73 | 131 | 0.0 | 0.0 | 0.00 | 0.00 | 0.00 | 94 | 1012.8 |
| 20260905110601 | 73 | 131 | 0.0 | 0.0 | 0.00 | 0.00 | 0.00 | 94 | 1012.8 |
| 20260905110055 | 73 | 131 | 0.0 | 0.0 | 0.00 | 0.00 | 0.00 | 94 | 1012.8 |
| 20260905105556 | 73 | 131 | 0.0 | 0.0 | 0.00 | 0.00 | 0.00 | 94 | 1012.7 |
| 20260905105056 | 73 | 131 | 0.0 | 0.0 | 0.00 | 0.00 | 0.00 | 94 | 1012.8 |
| 20260905104555 | 73 | 131 | 0.0 | 0.0 | 0.00 | 0.00 | 0.00 | 94 | 1012.8 |
| 20260905104056 | 73 | 131 | 0.0 | 0.0 | 0.00 | 0.00 | 0.00 | 94 | 1012.7 |
| 20260905103556 | 73 | 131 | 0.0 | 0.0 | 0.00 | 0.00 | 0.00 | 94 | 1012.6 |
| 20260905103100 | 73 | 131 | 0.0 | 0.0 | 0.00 | 0.00 | 0.00 | 94 | 1012.6 |
| 20260905102555 | 73 | 131 | 0.0 | 0.0 | 0.00 | 0.00 | 0.00 | 94 | 1012.5 |
| 20260905102054 | 73 | 131 | 0.0 | 0.0 | 0.00 | 0.00 | 0.00 | 94 | 1012.4 |
| 20260905101554 | 73 | 131 | 0.0 | 0.0 | 0.00 | 0.00 | 0.00 | 94 | 1012.4 |
| 20260905101053 | 73 | 131 | 0.0 | 0.0 | 0.00 | 0.00 | 0.00 | 94 | 1012.4 |
| 20260905100553 | 73 | 131 | 0.0 | 0.0 | 0.00 | 0.00 | 0.00 | 93 | 1012.5 |
| 20260905100100 | 73 | 131 | 0.0 | 0.0 | 0.00 | 0.00 | 0.00 | 93 | 1012.4 |
| 20260905095552 | 73 | 131 | 0.0 | 0.0 | 0.00 | 0.00 | 0.00 | 93 | 1012.4 |
| 20260905095052 | 73 | 131 | 0.0 | 0.0 | 0.00 | 0.00 | 0.00 | 93 | 1012.4 |
| 20260905094552 | 73 | 131 | 0.0 | 0.0 | 0.00 | 0.00 | 0.00 | 93 | 1012.4 |
| 20260905094051 | 73 | 131 | 0.0 | 0.0 | 0.00 | 0.00 | 0.00 | 93 | 1012.4 |
| 20260905093552 | 74 | 131 | 0.0 | 0.0 | 0.00 | 0.00 | 0.00 | 93 | 1012.4 |
| 20260905093052 | 74 | 131 | 0.0 | 0.0 | 0.00 | 0.00 | 0.00 | 93 | 1012.3 |
| 20260905092552 | 74 | 131 | 0.0 | 0.0 | 0.00 | 0.00 | 0.00 | 93 | 1012.4 |
| 20260905092052 | 74 | 131 | 0.0 | 0.0 | 0.00 | 0.00 | 0.00 | 93 | 1012.4 |
| 20260905091555 | 74 | 131 | 0.0 | 0.0 | 0.00 | 0.00 | 0.00 | 92 | 1012.4 |
| 20260905091051 | 74 | 131 | 0.0 | 0.0 | 0.00 | 0.00 | 0.00 | 92 | 1012.4 |
| 20260905090549 | 74 | 131 | 0.0 | 0.0 | 0.00 | 0.00 | 0.00 | 92 | 1012.3 |
| 20260905090049 | 74 | 131 | 0.0 | 0.0 | 0.00 | 0.00 | 0.00 | 92 | 1012.4 |
| 20260905085550 | 74 | 131 | 0.0 | 0.0 | 0.00 | 0.00 | 0.00 | 92 | 1012.4 |
| 20260905085048 | 74 | 131 | 0.0 | 0.0 | 0.00 | 0.00 | 0.00 | 92 | 1012.4 |
| 20260905084604 | 74 | 131 | 0.0 | 0.0 | 0.00 | 0.00 | 0.00 | 92 | 1012.3 |
| 20260905084048 | 74 | 131 | 0.0 | 0.0 | 0.00 | 0.00 | 0.00 | 92 | 1012.3 |
| 20260905083551 | 74 | 131 | 0.0 | 0.0 | 0.00 | 0.00 | 0.00 | 92 | 1012.4 |
| 20260905083050 | 74 | 131 | 0.0 | 0.0 | 0.00 | 0.00 | 0.00 | 92 | 1012.4 |
| 20260905082547 | 74 | 131 | 0.0 | 0.0 | 0.00 | 0.00 | 0.00 | 92 | 1012.3 |
| 20260905082047 | 74 | 131 | 0.0 | 0.0 | 0.00 | 0.00 | 0.00 | 92 | 1012.4 |
| 20260905081547 | 74 | 131 | 0.0 | 0.0 | 0.00 | 0.00 | 0.00 | 91 | 1012.3 |
| 20260905081048 | 74 | 131 | 0.0 | 0.0 | 0.00 | 0.00 | 0.00 | 91 | 1012.2 |
| 20260905080546 | 74 | 131 | 0.0 | 0.0 | 0.00 | 0.00 | 0.00 | 91 | 1012.3 |
| 20260905080112 | 74 | 131 | 0.0 | 0.0 | 0.00 | 0.00 | 0.00 | 91 | 1012.3 |
| 20260905075546 | 74 | 131 | 0.0 | 0.0 | 0.00 | 0.00 | 0.00 | 91 | 1012.3 |
| 20260905075044 | 75 | 131 | 0.0 | 0.0 | 0.00 | 0.00 | 0.00 | 90 | 1012.2 |
| 20260905074544 | 75 | 131 | 0.0 | 0.0 | 0.00 | 0.00 | 0.00 | 90 | 1012.3 |
| 20260905074044 | 75 | 131 | 0.0 | 0.0 | 0.00 | 0.00 | 0.00 | 90 | 1012.3 |
| 20260905073543 | 75 | 131 | 0.0 | 0.0 | 0.00 | 0.00 | 0.00 | 90 | 1012.2 |
| 20260905073044 | 75 | 131 | 0.0 | 0.0 | 0.00 | 0.00 | 0.00 | 90 | 1012.1 |
| 20260905072547 | 75 | 131 | 0.0 | 0.0 | 0.00 | 0.00 | 0.00 | 90 | 1012.0 |
| 20260905072043 | 75 | 131 | 0.0 | 0.0 | 0.00 | 0.00 | 0.00 | 90 | 1011.9 |
| 20260905071543 | 75 | 131 | 0.0 | 0.0 | 0.00 | 0.00 | 0.00 | 90 | 1012.0 |
| 20260905071042 | 75 | 131 | 0.0 | 0.0 | 0.00 | 0.00 | 0.00 | 90 | 1012.0 |
| 20260905070542 | 75 | 131 | 0.0 | 0.0 | 0.00 | 0.00 | 0.00 | 89 | 1011.9 |
| 20260905070050 | 75 | 131 | 0.0 | 0.0 | 0.00 | 0.00 | 0.00 | 89 | 1011.7 |
| 20260905065543 | 75 | 131 | 0.0 | 0.0 | 0.00 | 0.00 | 0.00 | 88 | 1011.9 |
| 20260905065040 | 75 | 131 | 0.0 | 0.0 | 0.00 | 0.00 | 0.00 | 88 | 1012.0 |
| 20260905064547 | 75 | 131 | 0.0 | 0.0 | 0.00 | 0.00 | 0.00 | 88 | 1012.2 |
| 20260905064040 | 75 | 131 | 0.0 | 0.0 | 0.00 | 0.00 | 0.00 | 87 | 1012.3 |
| 20260905063538 | 76 | 131 | 0.0 | 0.0 | 0.00 | 0.00 | 0.00 | 87 | 1012.4 |
| 20260905063041 | 76 | 131 | 0.0 | 0.0 | 0.00 | 0.00 | 0.00 | 86 | 1012.4 |
| 20260905062535 | 76 | 131 | 0.0 | 0.0 | 0.00 | 0.00 | 0.00 | 86 | 1012.4 |
| 20260905062034 | 76 | 131 | 0.0 | 0.0 | 0.00 | 0.00 | 0.00 | 85 | 1012.5 |
| 20260905061535 | 77 | 131 | 0.0 | 0.0 | 0.00 | 0.00 | 0.00 | 85 | 1012.5 |
| 20260905061034 | 77 | 131 | 0.0 | 0.0 | 0.00 | 0.00 | 0.00 | 84 | 1012.6 |
| 20260905060530 | 77 | 131 | 0.0 | 0.0 | 0.00 | 0.00 | 0.00 | 84 | 1012.7 |
| 20260905060043 | 77 | 131 | 0.0 | 0.0 | 0.00 | 0.00 | 0.00 | 83 | 1012.7 |
| 20260905055529 | 78 | 131 | 0.0 | 0.9 | 0.00 | 0.00 | 0.00 | 83 | 1012.8 |
| 20260905055028 | 78 | 131 | 0.0 | 1.7 | 0.00 | 0.00 | 0.00 | 83 | 1012.9 |
| 20260905054536 | 78 | 131 | 0.0 | 1.7 | 0.00 | 0.00 | 0.00 | 82 | 1012.9 |
| 20260905054033 | 78 | 131 | 0.0 | 0.9 | 0.00 | 0.00 | 0.00 | 82 | 1013.0 |
| 20260905053528 | 79 | 131 | 0.0 | 0.9 | 0.00 | 0.00 | 0.00 | 81 | 1013.0 |
| 20260905053028 | 79 | 131 | 0.0 | 0.0 | 0.00 | 0.00 | 0.00 | 81 | 1012.9 |
| 20260905052527 | 79 | 131 | 0.0 | 0.0 | 0.00 | 0.00 | 0.00 | 80 | 1012.9 |
| 20260905052027 | 79 | 131 | 0.0 | 1.7 | 0.00 | 0.00 | 0.00 | 80 | 1012.9 |
| 20260905051527 | 79 | 131 | 0.0 | 1.7 | 0.00 | 0.00 | 0.00 | 79 | 1012.9 |
| 20260905051027 | 79 | 131 | 0.0 | 1.7 | 0.00 | 0.00 | 0.00 | 79 | 1012.9 |
| 20260905050526 | 79 | 131 | 0.0 | 1.7 | 0.00 | 0.00 | 0.00 | 79 | 1013.0 |
| 20260905050028 | 79 | 131 | 0.0 | 1.7 | 0.00 | 0.00 | 0.00 | 78 | 1013.0 |
| 20260905045525 | 79 | 146 | 0.0 | 1.7 | 0.00 | 0.00 | 0.00 | 78 | 1013.0 |
| 20260905045030 | 79 | 145 | 0.0 | 2.6 | 0.00 | 0.00 | 0.00 | 78 | 1012.9 |
| 20260905044534 | 79 | 134 | 0.0 | 2.6 | 0.00 | 0.00 | 0.00 | 79 | 1012.9 |
| 20260905044025 | 78 | 188 | 0.0 | 0.9 | 0.00 | 0.00 | 0.00 | 80 | 1013.0 |
| 20260905043524 | 78 | 188 | 0.0 | 0.9 | 0.00 | 0.00 | 0.00 | 80 | 1013.1 |
| 20260905043023 | 78 | 188 | 0.0 | 0.0 | 0.00 | 0.00 | 0.00 | 81 | 1013.0 |
| 20260905042526 | 78 | 188 | 0.0 | 0.0 | 0.00 | 0.00 | 0.00 | 80 | 1013.0 |
| 20260905042022 | 78 | 188 | 0.0 | 0.0 | 0.00 | 0.00 | 0.00 | 79 | 1013.0 |
| 20260905041522 | 78 | 188 | 0.0 | 0.0 | 0.00 | 0.00 | 0.00 | 80 | 1013.0 |
| 20260905041020 | 78 | 188 | 0.0 | 0.0 | 0.00 | 0.00 | 0.00 | 79 | 1012.9 |
| 20260905040518 | 78 | 188 | 0.0 | 0.0 | 0.00 | 0.00 | 0.00 | 79 | 1012.8 |
| 20260905040024 | 79 | 188 | 0.0 | 0.0 | 0.00 | 0.00 | 0.00 | 79 | 1012.8 |
| 20260905035518 | 79 | 188 | 0.0 | 0.0 | 0.00 | 0.00 | 0.00 | 78 | 1012.8 |
| 20260905035017 | 79 | 188 | 0.0 | 0.0 | 0.00 | 0.00 | 0.00 | 79 | 1012.8 |
| 20260905034518 | 79 | 188 | 0.0 | 0.0 | 0.00 | 0.00 | 0.00 | 79 | 1012.9 |
| 20260905034018 | 79 | 188 | 0.0 | 0.0 | 0.00 | 0.00 | 0.00 | 78 | 1012.9 |
| 20260905033519 | 79 | 188 | 0.0 | 0.0 | 0.00 | 0.00 | 0.00 | 80 | 1012.9 |
| 20260905033017 | 79 | 188 | 0.0 | 0.0 | 0.00 | 0.00 | 0.00 | 79 | 1012.9 |
| 20260905032516 | 79 | 188 | 0.0 | 0.0 | 0.00 | 0.00 | 0.00 | 78 | 1012.9 |
| 20260905032017 | 79 | 188 | 0.0 | 0.0 | 0.00 | 0.00 | 0.00 | 78 | 1013.0 |
| 20260905031529 | 80 | 188 | 0.0 | 0.0 | 0.00 | 0.00 | 0.00 | 77 | 1013.0 |
| 20260905031016 | 80 | 188 | 0.0 | 0.0 | 0.00 | 0.00 | 0.00 | 77 | 1013.1 |
| 20260905030516 | 80 | 188 | 0.0 | 0.0 | 0.00 | 0.00 | 0.00 | 76 | 1013.2 |
| 20260905030017 | 80 | 188 | 0.0 | 0.0 | 0.00 | 0.00 | 0.00 | 76 | 1013.3 |
| 20260905025518 | 80 | 188 | 0.0 | 0.0 | 0.00 | 0.00 | 0.00 | 76 | 1013.3 |
| 20260905025016 | 80 | 188 | 0.0 | 0.0 | 0.00 | 0.00 | 0.00 | 76 | 1013.3 |
| 20260905024517 | 80 | 188 | 0.0 | 0.0 | 0.00 | 0.00 | 0.00 | 76 | 1013.4 |
| 20260905024015 | 80 | 188 | 0.0 | 0.0 | 0.00 | 0.00 | 0.00 | 76 | 1013.5 |
| 20260905023522 | 80 | 188 | 0.0 | 0.0 | 0.00 | 0.00 | 0.00 | 77 | 1013.5 |
| 20260905023018 | 81 | 188 | 0.0 | 0.0 | 0.00 | 0.00 | 0.00 | 75 | 1013.5 |
| 20260905022515 | 81 | 188 | 0.0 | 0.0 | 0.00 | 0.00 | 0.00 | 77 | 1013.6 |
| 20260905022021 | 81 | 188 | 0.0 | 0.0 | 0.00 | 0.00 | 0.00 | 75 | 1013.6 |
| 20260905021529 | 81 | 188 | 0.0 | 0.0 | 0.00 | 0.00 | 0.00 | 75 | 1013.6 |
| 20260905021014 | 81 | 188 | 0.0 | 0.0 | 0.00 | 0.00 | 0.00 | 74 | 1013.7 |
| 20260905020517 | 81 | 188 | 0.0 | 0.0 | 0.00 | 0.00 | 0.00 | 74 | 1013.7 |
| 20260905020014 | 81 | 188 | 0.0 | 0.0 | 0.00 | 0.00 | 0.00 | 74 | 1013.7 |
| 20260905015514 | 81 | 188 | 0.0 | 0.0 | 0.00 | 0.00 | 0.00 | 74 | 1013.7 |
| 20260905015016 | 82 | 188 | 0.0 | 0.0 | 0.00 | 0.00 | 0.00 | 73 | 1013.8 |
| 20260905014514 | 82 | 188 | 0.0 | 0.0 | 0.00 | 0.00 | 0.00 | 73 | 1013.7 |
| 20260905014015 | 82 | 188 | 0.0 | 0.0 | 0.00 | 0.00 | 0.00 | 73 | 1013.6 |
| 20260905013515 | 82 | 188 | 0.0 | 0.0 | 0.00 | 0.00 | 0.00 | 73 | 1013.6 |
| 20260905013015 | 82 | 188 | 0.0 | 0.0 | 0.00 | 0.00 | 0.00 | 72 | 1013.5 |
| 20260905012513 | 82 | 188 | 0.0 | 0.0 | 0.00 | 0.00 | 0.00 | 72 | 1013.5 |
| 20260905012013 | 82 | 188 | 0.0 | 0.0 | 0.00 | 0.00 | 0.00 | 72 | 1013.4 |
| 20260905011513 | 83 | 188 | 0.0 | 0.0 | 0.00 | 0.00 | 0.00 | 72 | 1013.4 |
| 20260905011013 | 83 | 188 | 0.0 | 0.0 | 0.00 | 0.00 | 0.00 | 72 | 1013.3 |
| 20260905010513 | 83 | 188 | 0.0 | 0.0 | 0.00 | 0.00 | 0.00 | 71 | 1013.3 |
| 20260905010012 | 83 | 188 | 0.0 | 0.0 | 0.00 | 0.00 | 0.00 | 70 | 1013.2 |
| 20260905005512 | 84 | 188 | 0.0 | 0.0 | 0.00 | 0.00 | 0.00 | 69 | 1013.2 |
| 20260905005011 | 84 | 188 | 0.0 | 0.0 | 0.00 | 0.00 | 0.00 | 68 | 1013.1 |
| 20260905004513 | 84 | 188 | 0.0 | 0.0 | 0.00 | 0.00 | 0.00 | 68 | 1013.0 |
| 20260905004012 | 84 | 188 | 0.0 | 0.0 | 0.00 | 0.00 | 0.00 | 68 | 1012.9 |
| 20260905003515 | 84 | 188 | 0.0 | 0.0 | 0.00 | 0.00 | 0.00 | 67 | 1013.0 |
| 20260905003022 | 85 | 188 | 0.0 | 0.0 | 0.00 | 0.00 | 0.00 | 67 | 1012.9 |
| 20260905002517 | 85 | 188 | 0.0 | 0.0 | 0.00 | 0.00 | 0.00 | 66 | 1012.8 |
| 20260905002013 | 85 | 188 | 0.0 | 0.0 | 0.00 | 0.00 | 0.00 | 67 | 1012.9 |
| 20260905001511 | 86 | 188 | 0.0 | 0.9 | 0.00 | 0.00 | 0.00 | 66 | 1012.9 |
| 20260905001011 | 86 | 188 | 0.0 | 0.9 | 0.00 | 0.00 | 0.00 | 65 | 1012.8 |
| 20260905000511 | 87 | 188 | 0.0 | 0.9 | 0.00 | 0.00 | 0.00 | 63 | 1012.7 |
| 20260905000011 | 87 | 188 | 0.0 | 0.9 | 0.00 | 0.00 | 0.00 | 62 | 1012.6 |
| 20260904235511 | 88 | 188 | 0.0 | 1.7 | 0.00 | 0.00 | 0.00 | 62 | 1012.5 |
| 20260904235010 | 88 | 188 | 0.0 | 1.7 | 0.00 | 0.00 | 0.00 | 60 | 1012.5 |
| 20260904234510 | 89 | 188 | 0.0 | 0.9 | 0.00 | 0.00 | 0.00 | 59 | 1012.5 |
| 20260904234011 | 90 | 188 | 0.0 | 3.5 | 0.00 | 0.00 | 0.00 | 57 | 1012.5 |
| 20260904233510 | 90 | 188 | 0.9 | 3.5 | 0.00 | 0.00 | 0.00 | 56 | 1012.4 |
| 20260904233030 | 90 | 74 | 1.7 | 3.5 | 0.00 | 0.00 | 0.00 | 55 | 1012.4 |
| 20260904232511 | 90 | 122 | 0.9 | 3.5 | 0.00 | 0.00 | 0.00 | 56 | 1012.3 |
| 20260904232009 | 91 | 214 | 0.9 | 2.6 | 0.00 | 0.00 | 0.00 | 55 | 1012.4 |
| 20260904231510 | 91 | 81 | 0.9 | 1.7 | 0.00 | 0.00 | 0.00 | 55 | 1012.3 |
| 20260904231009 | 91 | 98 | 0.0 | 2.6 | 0.00 | 0.00 | 0.00 | 55 | 1012.3 |
| 20260904230509 | 91 | 77 | 0.0 | 2.6 | 0.00 | 0.00 | 0.00 | 54 | 1012.3 |
| 20260904230025 | 91 | 98 | 0.0 | 2.6 | 0.00 | 0.00 | 0.00 | 55 | 1012.2 |
| 20260904225509 | 92 | 125 | 0.0 | 3.5 | 0.00 | 0.00 | 0.00 | 54 | 1012.3 |
| 20260904225008 | 92 | 70 | 0.9 | 3.5 | 0.00 | 0.00 | 0.00 | 55 | 1012.2 |